FIN125 EFHK-EVRA

Flight info

Callsign FIN125
Flight time 0h 36m
Altitude 34000
Route KOIVU Y123 LARTI DCT LUTAL
Aircraft A319/M-SDE3FGHIRWY/LB1

Departure

Time 2026-05-07 19:20
Airport Helsinki Vantaa Airport (EFHK)

Arrival

Time 2026-05-07 19:56
Airport Riga International Airport (EVRA)
Time Latitude Longitude Altitude Speed Heading
2026-05-07 18:47 60.31671 24.97204 167 ft 0 kts 243°
2026-05-07 19:11 60.31674 24.97217 166 ft 4 kts 242°
2026-05-07 19:11 60.31687 24.97265 166 ft 4 kts 245°
2026-05-07 19:12 60.31695 24.97314 166 ft 4 kts 286°
2026-05-07 19:12 60.31691 24.97333 166 ft 1 kts 333°
2026-05-07 19:15 60.31696 24.97327 166 ft 3 kts 332°
2026-05-07 19:15 60.31729 24.97291 166 ft 7 kts 332°
2026-05-07 19:16 60.31778 24.97240 166 ft 8 kts 335°
2026-05-07 19:16 60.31835 24.97185 166 ft 10 kts 333°
2026-05-07 19:16 60.31901 24.97117 166 ft 11 kts 333°
2026-05-07 19:16 60.31971 24.97044 166 ft 12 kts 333°
2026-05-07 19:17 60.32047 24.96965 166 ft 13 kts 332°
2026-05-07 19:17 60.32125 24.96876 166 ft 13 kts 330°
2026-05-07 19:17 60.32198 24.96790 166 ft 8 kts 329°
2026-05-07 19:17 60.32250 24.96729 166 ft 9 kts 329°
2026-05-07 19:18 60.32300 24.96669 168 ft 8 kts 330°
2026-05-07 19:18 60.32334 24.96628 170 ft 3 kts 330°
2026-05-07 19:18 60.32361 24.96598 173 ft 7 kts 329°
2026-05-07 19:18 60.32408 24.96543 175 ft 8 kts 330°
2026-05-07 19:19 60.32411 24.96464 176 ft 6 kts 228°
2026-05-07 19:19 60.32383 24.96404 177 ft 7 kts 227°
2026-05-07 19:19 60.32190 24.95982 177 ft 81 kts 227°
2026-05-07 19:19 60.31638 24.94772 171 ft 148 kts 227°
2026-05-07 19:20 60.30927 24.93212 747 ft 148 kts 227°
2026-05-07 19:20 60.30184 24.91824 1407 ft 149 kts 216°
2026-05-07 19:20 60.29216 24.90688 1835 ft 170 kts 209°
2026-05-07 19:20 60.28109 24.89476 2208 ft 193 kts 209°
2026-05-07 19:21 60.26868 24.88114 2580 ft 218 kts 210°
2026-05-07 19:21 60.25463 24.86564 3253 ft 233 kts 210°
2026-05-07 19:21 60.24036 24.84999 4145 ft 239 kts 209°
2026-05-07 19:21 60.22423 24.83892 5024 ft 246 kts 194°
2026-05-07 19:22 60.20744 24.83132 5926 ft 251 kts 194°
2026-05-07 19:22 60.19018 24.82341 6817 ft 256 kts 194°
2026-05-07 19:22 60.17215 24.81534 7407 ft 276 kts 193°
2026-05-07 19:22 60.15299 24.80715 8190 ft 285 kts 193°
2026-05-07 19:23 60.13341 24.79888 9057 ft 290 kts 193°
2026-05-07 19:23 60.11353 24.79055 9924 ft 294 kts 193°
2026-05-07 19:23 60.09322 24.78203 10587 ft 308 kts 194°
2026-05-07 19:23 60.07143 24.77278 10910 ft 332 kts 194°
2026-05-07 19:24 60.04806 24.76283 11201 ft 354 kts 194°
2026-05-07 19:24 60.02365 24.75254 11845 ft 362 kts 194°
2026-05-07 19:24 59.99894 24.74227 12654 ft 364 kts 195°
2026-05-07 19:24 59.97399 24.73197 13424 ft 367 kts 195°
2026-05-07 19:25 59.94885 24.72154 14148 ft 371 kts 196°
2026-05-07 19:25 59.92343 24.71097 14872 ft 374 kts 196°
2026-05-07 19:25 59.89790 24.70030 15592 ft 376 kts 197°
2026-05-07 19:25 59.87217 24.68955 16293 ft 379 kts 197°
2026-05-07 19:26 59.84629 24.67879 16959 ft 381 kts 197°
2026-05-07 19:26 59.82026 24.66800 17632 ft 384 kts 197°
2026-05-07 19:26 59.79394 24.65730 18279 ft 387 kts 198°
2026-05-07 19:26 59.76745 24.64640 18903 ft 389 kts 198°
2026-05-07 19:27 59.74090 24.63539 19514 ft 391 kts 198°
2026-05-07 19:27 59.71423 24.62429 20107 ft 393 kts 198°
2026-05-07 19:27 59.68741 24.61317 20675 ft 395 kts 198°
2026-05-07 19:27 59.66047 24.60201 21224 ft 396 kts 198°
2026-05-07 19:28 59.63346 24.59087 21747 ft 398 kts 198°
2026-05-07 19:28 59.60619 24.57966 22252 ft 400 kts 198°
2026-05-07 19:28 59.57886 24.56850 22754 ft 401 kts 198°
2026-05-07 19:28 59.55141 24.55734 23226 ft 403 kts 198°
2026-05-07 19:29 59.52388 24.54613 23685 ft 405 kts 198°
2026-05-07 19:29 59.49627 24.53488 24136 ft 407 kts 198°
2026-05-07 19:29 59.47790 24.52738 24430 ft 408 kts 198°
2026-05-07 19:29 59.44061 24.51220 24982 ft 410 kts 198°
2026-05-07 19:30 59.42212 24.50472 25238 ft 412 kts 198°
2026-05-07 19:30 59.39394 24.49331 25615 ft 414 kts 198°
2026-05-07 19:30 59.36574 24.48185 25997 ft 416 kts 198°
2026-05-07 19:30 59.33722 24.47030 26366 ft 418 kts 198°
2026-05-07 19:31 59.30871 24.45882 26712 ft 420 kts 198°
2026-05-07 19:31 59.28001 24.44732 27059 ft 422 kts 198°
2026-05-07 19:31 59.25113 24.43576 27402 ft 424 kts 198°
2026-05-07 19:31 59.22214 24.42420 27729 ft 426 kts 198°
2026-05-07 19:32 59.19309 24.41260 28028 ft 427 kts 198°
2026-05-07 19:32 59.16405 24.40100 28102 ft 426 kts 198°
2026-05-07 19:32 59.10617 24.37790 28108 ft 423 kts 198°
2026-05-07 19:33 59.04848 24.35496 28110 ft 423 kts 198°
2026-05-07 19:33 58.99051 24.33216 28109 ft 422 kts 198°
2026-05-07 19:34 58.93289 24.30986 28109 ft 424 kts 195°
2026-05-07 19:34 58.87394 24.29752 28107 ft 426 kts 192°
2026-05-07 19:35 58.81478 24.28733 28103 ft 426 kts 192°
2026-05-07 19:35 58.75568 24.27704 28109 ft 426 kts 192°
2026-05-07 19:36 58.69666 24.26672 28109 ft 426 kts 192°
2026-05-07 19:36 58.63773 24.25648 28107 ft 426 kts 192°
2026-05-07 19:37 58.57874 24.24634 28108 ft 425 kts 192°
2026-05-07 19:37 58.51980 24.23613 28106 ft 425 kts 192°
2026-05-07 19:38 58.46090 24.22594 28105 ft 425 kts 192°
2026-05-07 19:38 58.40208 24.21581 28104 ft 424 kts 192°
2026-05-07 19:39 58.34323 24.20574 28049 ft 425 kts 192°
2026-05-07 19:39 58.31374 24.20073 27797 ft 425 kts 192°
2026-05-07 19:39 58.28430 24.19573 27547 ft 426 kts 191°
2026-05-07 19:40 58.25475 24.19069 27297 ft 427 kts 191°
2026-05-07 19:40 58.22537 24.18566 27048 ft 428 kts 191°
2026-05-07 19:40 58.19568 24.18056 26806 ft 429 kts 191°
2026-05-07 19:40 58.16562 24.17550 26112 ft 427 kts 191°
2026-05-07 19:41 58.13629 24.17057 24979 ft 428 kts 191°
2026-05-07 19:41 58.10681 24.16560 23845 ft 424 kts 191°
2026-05-07 19:41 58.07749 24.16066 22717 ft 421 kts 191°
2026-05-07 19:41 58.04843 24.15576 21671 ft 418 kts 191°
2026-05-07 19:42 58.01973 24.15100 20855 ft 410 kts 191°
2026-05-07 19:42 57.99160 24.14636 20054 ft 403 kts 190°
2026-05-07 19:42 57.96376 24.14176 19261 ft 400 kts 190°
2026-05-07 19:42 57.93619 24.13716 18489 ft 396 kts 190°
2026-05-07 19:43 57.90878 24.13258 17742 ft 394 kts 190°
2026-05-07 19:43 57.88113 24.12789 16995 ft 402 kts 189°
2026-05-07 19:43 57.85289 24.12315 16240 ft 401 kts 189°
2026-05-07 19:43 57.82545 24.11856 15529 ft 401 kts 189°
2026-05-07 19:44 57.79733 24.11390 14826 ft 400 kts 189°
2026-05-07 19:44 57.76994 24.10939 14069 ft 401 kts 188°
2026-05-07 19:44 57.74223 24.10484 13395 ft 399 kts 188°
2026-05-07 19:44 57.71429 24.10027 12719 ft 396 kts 188°
2026-05-07 19:45 57.68701 24.09582 12048 ft 393 kts 187°
2026-05-07 19:45 57.65993 24.09140 11416 ft 388 kts 187°
2026-05-07 19:45 57.63352 24.08709 11243 ft 371 kts 187°
2026-05-07 19:45 57.60845 24.08303 11130 ft 353 kts 187°
2026-05-07 19:46 57.58450 24.07909 10990 ft 338 kts 187°
2026-05-07 19:46 57.56157 24.07529 10866 ft 325 kts 187°
2026-05-07 19:46 57.53942 24.07164 10739 ft 312 kts 187°
2026-05-07 19:46 57.51810 24.06816 10528 ft 305 kts 187°
2026-05-07 19:47 57.49716 24.06472 10441 ft 302 kts 187°
2026-05-07 19:47 57.47626 24.06125 10364 ft 302 kts 186°
2026-05-07 19:47 57.45530 24.05781 10236 ft 302 kts 186°
2026-05-07 19:47 57.43444 24.05442 10104 ft 301 kts 186°
2026-05-07 19:48 57.41354 24.05100 9930 ft 302 kts 186°
2026-05-07 19:48 57.39234 24.04754 9411 ft 306 kts 186°
2026-05-07 19:48 57.37127 24.04411 9029 ft 303 kts 185°
2026-05-07 19:48 57.35027 24.04074 8499 ft 302 kts 185°
2026-05-07 19:49 57.32934 24.03737 7956 ft 301 kts 185°
2026-05-07 19:49 57.30882 24.03406 7439 ft 298 kts 185°
2026-05-07 19:49 57.28817 24.03075 6908 ft 297 kts 185°
2026-05-07 19:49 57.26764 24.02762 6415 ft 294 kts 184°
2026-05-07 19:50 57.24745 24.02506 6076 ft 290 kts 184°
2026-05-07 19:50 57.22736 24.02189 5698 ft 289 kts 185°
2026-05-07 19:50 57.22061 24.02074 5570 ft 288 kts 185°
2026-05-07 19:51 57.19937 24.01707 5151 ft 285 kts 185°
2026-05-07 19:51 57.17981 24.01379 4788 ft 281 kts 185°
2026-05-07 19:51 57.16015 24.01051 4413 ft 278 kts 185°
2026-05-07 19:51 57.14127 24.00733 4051 ft 275 kts 184°
2026-05-07 19:52 57.12250 24.00422 3690 ft 264 kts 184°
2026-05-07 19:52 57.10472 24.00124 3352 ft 249 kts 184°
2026-05-07 19:52 57.08792 23.99843 3029 ft 236 kts 184°
2026-05-07 19:52 57.07185 23.99576 2728 ft 227 kts 184°
2026-05-07 19:53 57.05646 23.99321 2422 ft 218 kts 184°
2026-05-07 19:53 57.04166 23.99076 2149 ft 209 kts 185°
2026-05-07 19:53 57.02759 23.98841 1872 ft 198 kts 185°
2026-05-07 19:53 57.01422 23.98619 1610 ft 188 kts 185°
2026-05-07 19:54 57.00158 23.98409 1374 ft 175 kts 185°
2026-05-07 19:54 56.99024 23.98221 1150 ft 154 kts 185°
2026-05-07 19:54 56.98002 23.98052 952 ft 143 kts 185°
2026-05-07 19:54 56.97035 23.97874 762 ft 138 kts 186°
2026-05-07 19:55 56.96088 23.97707 611 ft 136 kts 184°
2026-05-07 19:55 56.95147 23.97564 409 ft 135 kts 185°
2026-05-07 19:55 56.94215 23.97403 201 ft 134 kts 184°
2026-05-07 19:55 56.93294 23.97275 68 ft 133 kts 185°
2026-05-07 19:56 56.92461 23.97143 44 ft 104 kts 186°
2026-05-07 19:56 56.91913 23.97039 42 ft 54 kts 185°
2026-05-07 19:56 56.91657 23.97001 44 ft 30 kts 185°
2026-05-07 19:56 56.91447 23.96968 45 ft 30 kts 185°
2026-05-07 19:57 56.91269 23.97003 43 ft 20 kts 123°
2026-05-07 19:57 56.91308 23.97224 43 ft 20 kts 50°
2026-05-07 19:57 56.91388 23.97343 44 ft 15 kts
2026-05-07 19:57 56.91481 23.97364 44 ft 14 kts
2026-05-07 19:58 56.91584 23.97385 44 ft 16 kts
2026-05-07 19:58 56.91693 23.97399 44 ft 16 kts
2026-05-07 19:58 56.91811 23.97413 44 ft 18 kts
2026-05-07 19:58 56.91936 23.97433 44 ft 19 kts
2026-05-07 19:59 56.92041 23.97446 44 ft 10 kts
2026-05-07 19:59 56.92113 23.97460 44 ft 10 kts 13°
2026-05-07 19:59 56.92141 23.97560 44 ft 7 kts 97°
2026-05-07 19:59 56.92140 23.97642 44 ft 5 kts 65°
2026-05-07 20:00 56.92165 23.97658 44 ft 4 kts
2026-05-07 20:00 56.92189 23.97662 44 ft 2 kts
2026-05-07 20:00 56.92197 23.97664 44 ft 0 kts